sat.trackr.live / text

‹ back to catalog

STARLINK-32535

NORAD 62119 · 2024-222F

PAYLOAD ACTIVE UNKNOWN

§ Identity

Operator
Country
US
Launch date
2024-11-27
Launch site
AFETR
Launch vehicle
Mass (kg)
RCS (m²)

Purposes: comms

External: N2YO · Heavens-Above · Gunter

§ Orbital elements

Epoch: 2026-09-20T23:32:08.109024Z

Period
94.26 min
Inclination
43.0032°
Eccentricity
0.0001701
Mean motion
15.27613700 rev/d
Perigee alt
481.8 km
Apogee alt
484.1 km
Semi-major
6,861.1 km
B*
6.9704e-4
RAAN
110.0430°
Arg perigee
278.6138°
Mean anomaly
81.4521°
Rev number
10,266

§ Raw data

STARLINK-325351 62119U 24222F   26263.98064941  .00018988  00000+0  69704-3 0  99932 62119  43.0032 110.0430 0001701 278.6138  81.4521 15.27613700102664

JSON: /api/v1/satellites/62119 · /tle

For live sub-satellite position, see the globe view (requires WebGL).

§ Visibility from observer

Set your observer location to see the next 7 days of passes ≥ 10°. The values pass through the URL so the page stays shareable.

No JS? Fill the form by hand. The geolocation button needs JavaScript.